User: anonymous   Login
Location: Unspecified
(0.0000°N, 0.0000°E)
Time: 12:39:47
(UTC+00:00)
Language:

Meteor 2-20 - Orbit

View from above orbital plane
View from above orbital plane
View from above satellite
View from above satellite

Ground track
Ground track

The orbit data is extracted from the following two-line orbital elements,

1 20826U 90086A   18169.93713829 +.00000015 +00000-0 +14533-7 0  9997
2 20826 082.5237 004.5318 0012125 302.6270 057.3719 13.84231143400296
Epoch (UTC): 18 June 2018 22:29:28
Eccentricity: 0.0012125
inclination: 82.5237°
perigee height: 940 km
apogee height: 958 km
right ascension of ascending node: 4.5318°
argument of perigee: 302.6270°
revolutions per day: 13.84231143
mean anomaly at epoch: 57.3719°
orbit number at epoch: 40029

The dashed part of the orbit path shows where the satellite is in the earth's shadow,  

DLR